Regional Weather Roundup
Issued by NWS

Home | Current Version | Previous Version | Graphics & Text | Print | Product List | Glossary On
Versions: 1 2 3 4 5 6 7 8 9 10 11 12 13 14 15 16 17 18 19 20 21 22 23 24 25 26 27 28 29 30 31 32 33 34 35 36 37 38 39 40 41 42 43 44 45 46 47 48 49 50
000
ASUS43 KBIS 010002
RWRND

NORTH DAKOTA REGIONAL WEATHER ROUNDUP
NATIONAL WEATHER SERVICE BISMARCK ND
700 PM CDT TUE JUN 30 2015

NOTE: "FAIR" INDICATES FEW OR NO CLOUDS BELOW 12,000 FEET WITH NO
SIGNIFICANT WEATHER AND/OR OBSTRUCTIONS TO VISIBILITY.


NDZ001>003-009>011-017-010100-
NORTHWEST NORTH DAKOTA

CITY           SKY/WX    TMP DP  RH WIND       PRES   REMARKS
WILLISTON      PTSUNNY   74  57  55 E16G29    29.86S HAZE
6HR MIN TEMP:  73; 6HR MAX TEMP:  81;

MINOT          CLOUDY    69  64  84 CALM      29.90S HAZE
MINOT AFB      DRIZZLE   70  70 100 E7        29.88F
$$

NDZ018>021-031>035-040>046-010100-
SOUTHWEST NORTH DAKOTA

CITY           SKY/WX    TMP DP  RH WIND       PRES   REMARKS
BISMARCK       PTSUNNY   73  65  75 E10       29.89F
6HR MIN TEMP:  70; 6HR MAX TEMP:  77; 6HR PCP: TRACE;

DICKINSON      MOSUNNY   74  61  63 E15       29.84F
GARRISON         N/A     68  65  90 E12       29.90R
6HR MIN TEMP:  67; 6HR MAX TEMP:  72; 6HR PCP:  0.09;

HETTINGER ARPT MOSUNNY   78  65  63 SE14      29.86F
$$

NDZ004>008-012>016-024-026-027-054-010100-
NORTHEAST NORTH DAKOTA

CITY           SKY/WX    TMP DP  RH WIND       PRES   REMARKS
GRAND FORKS    CLOUDY    74  58  57 S5        29.91S
GRND FRKS AFB  PTSUNNY   72  60  64 SW6       29.92F
DEVILS LAKE    CLOUDY    66  59  77 SE8       29.90F
$$

NDZ022-023-025-028>030-036>039-047>053-010100-
SOUTHEAST NORTH DAKOTA

CITY           SKY/WX    TMP DP  RH WIND       PRES   REMARKS
FARGO          CLOUDY    73  63  70 NE3       29.90F
6HR MIN TEMP:  72; 6HR MAX TEMP:  75;

JAMESTOWN      CLOUDY    71  61  70 E8        29.90F
$$



USA.gov is the U.S. government's official web portal to all federal, state and local government web resources and services.